FW4608 Weather Reports


Display with metric or nautical units.
time (UTC)temp
F
wind
direction
speed
MPH
gust
MPH
rain 1hr
in
rain 24hr
in
rain mn
in
humidity
%
barometer
mb
20260901022520 78 323 0.0 0.0 0.00 0.00 0.00 91 1017.7
20260901022020 79 323 0.0 0.0 0.00 0.00 0.00 91 1017.7
20260901021519 79 323 0.0 0.0 0.00 0.00 0.00 90 1017.6
20260901021019 79 323 0.0 0.0 0.00 0.00 0.00 91 1017.7
20260901020518 79 323 0.0 0.0 0.00 0.00 0.00 90 1017.6
20260901020018 79 323 0.0 0.0 0.00 0.00 0.00 90 1017.6
20260901015517 79 323 0.0 0.0 0.00 0.00 0.00 90 1017.7
20260901015018 79 323 0.0 0.0 0.00 0.00 0.00 90 1017.7
20260901014517 79 323 0.0 0.0 0.00 0.00 0.00 90 1017.6
20260901014015 79 323 0.0 0.0 0.00 0.00 0.00 90 1017.5
20260901013515 79 323 0.0 0.0 0.00 0.00 0.00 90 1017.3
20260901013020 79 323 0.0 0.0 0.00 0.00 0.00 89 1017.4
20260901012521 79 323 0.0 0.0 0.00 0.00 0.00 89 1017.3
20260901012016 80 323 0.0 0.0 0.00 0.00 0.00 89 1017.3
20260901011513 80 323 0.0 0.0 0.00 0.00 0.00 89 1017.2
20260901011012 80 323 0.0 0.0 0.00 0.00 0.00 88 1017.1
20260901010511 80 323 0.0 0.0 0.00 0.00 0.00 88 1017.1
20260901010013 80 355 0.0 1.0 0.00 0.00 0.00 88 1017.0
20260901005511 80 355 0.0 2.0 0.00 0.00 0.00 88 1016.9
20260901005011 80 360 0.0 2.0 0.00 0.00 0.00 88 1016.9
20260901004528 80 304 0.0 0.0 0.00 0.00 0.00 87 1017.0
20260901004010 80 304 0.0 0.0 0.00 0.00 0.00 87 1017.0
20260901003511 80 304 0.0 0.0 0.00 0.00 0.00 87 1017.1
20260901003011 80 304 0.0 0.0 0.00 0.00 0.00 86 1017.1
20260901002509 80 304 0.0 0.0 0.00 0.00 0.00 86 1017.0
20260901002009 80 304 0.0 0.0 0.00 0.00 0.00 86 1017.0
20260901001519 80 304 0.0 0.0 0.00 0.00 0.00 86 1016.9
20260901001009 81 304 0.0 1.0 0.00 0.00 0.00 86 1016.8
20260901000508 81 304 0.0 1.0 0.00 0.00 0.00 85 1016.8
20260901000012 81 209 0.0 1.0 0.00 0.00 0.00 85 1016.8
20260831235505 81 195 0.0 1.0 0.00 0.00 0.00 85 1016.7
20260831235007 81 319 0.0 1.0 0.00 0.00 0.00 85 1016.7
20260831234505 82 319 0.0 2.0 0.00 0.00 0.00 85 1016.8
20260831234004 82 319 0.0 2.0 0.00 0.00 0.00 84 1016.7
20260831233504 82 304 0.0 2.0 0.00 0.00 0.00 84 1016.7
20260831233002 82 328 0.0 1.0 0.00 0.00 0.00 84 1016.9
20260831232501 82 314 0.0 1.0 0.00 0.00 0.00 83 1017.0
20260831232100 83 304 0.0 1.0 0.00 0.00 0.00 83 1017.0
20260831231601 83 304 0.0 2.0 0.00 0.00 0.00 83 1017.0
20260831231100 83 70 0.0 4.0 0.00 0.00 0.00 82 1016.9
20260831230558 83 184 0.0 2.0 0.00 0.00 0.00 82 1016.9
20260831225558 84 285 0.0 1.0 0.00 0.00 0.00 81 1016.9
20260831225057 84 168 0.0 5.0 0.00 0.00 0.00 81 1017.0
20260831224600 84 311 0.0 5.0 0.00 0.00 0.00 80 1016.9
20260831224057 85 342 0.0 4.0 0.00 0.00 0.00 79 1016.7
20260831223556 86 283 0.0 5.0 0.00 0.00 0.00 79 1016.6
20260831223054 86 288 0.0 6.0 0.00 0.00 0.00 78 1016.7
20260831222554 87 348 1.0 6.0 0.00 0.00 0.00 77 1016.7
20260831222053 88 314 0.0 3.0 0.00 0.00 0.00 76 1016.5
20260831221554 88 323 0.0 3.0 0.00 0.00 0.00 76 1016.5
20260831221052 89 220 0.0 3.0 0.00 0.00 0.00 77 1016.5
20260831220551 89 301 0.0 4.0 0.00 0.00 0.00 75 1016.3
20260831220052 89 304 0.0 4.0 0.00 0.00 0.00 74 1016.4
20260831215550 89 297 1.0 4.0 0.00 0.00 0.00 73 1016.5
20260831215049 90 326 0.0 5.0 0.00 0.00 0.00 73 1016.5
20260831214618 89 340 0.0 5.0 0.00 0.00 0.00 74 1016.4
20260831214048 89 338 0.0 3.0 0.00 0.00 0.00 73 1016.5
20260831213548 89 333 0.0 4.0 0.00 0.00 0.00 74 1016.6
20260831213048 89 304 0.0 4.0 0.00 0.00 0.00 74 1016.5
20260831212547 89 255 1.0 5.0 0.00 0.00 0.00 73 1016.5
20260831212150 90 213 1.0 4.0 0.00 0.00 0.00 73 1016.5
20260831211546 90 142 0.0 3.0 0.00 0.00 0.00 74 1016.5
20260831211047 90 268 0.0 4.0 0.00 0.00 0.00 75 1016.5
20260831210550 90 309 1.0 4.0 0.00 0.00 0.00 73 1016.6
20260831210043 90 290 1.0 5.0 0.00 0.00 0.00 72 1016.6
20260831205543 91 331 1.0 5.0 0.00 0.00 0.00 72 1016.7
20260831205042 91 304 0.0 4.0 0.00 0.00 0.00 74 1016.6
20260831204542 91 290 0.0 3.0 0.00 0.00 0.00 73 1016.6
20260831204041 91 250 0.0 7.0 0.00 0.00 0.00 74 1016.7
20260831203544 91 343 2.0 7.0 0.00 0.00 0.00 71 1016.7
20260831203039 92 268 0.0 11.0 0.00 0.00 0.00 72 1016.6
20260831202542 91 295 1.0 11.0 0.00 0.00 0.00 74 1016.6
20260831202038 91 114 1.0 4.0 0.00 0.00 0.00 75 1016.6
20260831201539 91 305 2.0 6.0 0.00 0.00 0.00 72 1016.5
20260831201036 92 345 1.0 6.0 0.00 0.00 0.00 73 1016.5
20260831200537 91 302 0.0 4.0 0.00 0.00 0.00 73 1016.5
20260831200041 92 127 1.0 6.0 0.00 0.00 0.00 72 1016.6
20260831195533 93 350 0.0 6.0 0.00 0.06 0.00 72 1016.5
20260831195035 92 321 0.0 3.0 0.00 0.06 0.00 73 1016.6
20260831194531 92 317 1.0 3.0 0.00 0.06 0.00 73 1016.7
20260831194032 92 109 0.0 3.0 0.00 0.06 0.00 75 1016.7
20260831193531 92 337 0.0 4.0 0.00 0.06 0.00 75 1016.7
20260831193033 91 326 1.0 4.0 0.00 0.06 0.00 75 1016.7
20260831192527 91 72 0.0 4.0 0.00 0.06 0.00 76 1016.6
20260831192028 90 321 0.0 6.0 0.00 0.06 0.00 75 1016.8
20260831191528 91 118 1.0 6.0 0.00 0.06 0.00 74 1016.7
20260831191025 92 143 1.0 6.0 0.00 0.06 0.00 78 1016.8
20260831190525 91 320 1.0 6.0 0.00 0.06 0.00 76 1016.8
20260831190042 90 1 0.0 3.0 0.00 0.06 0.00 79 1017.0
20260831185522 89 215 0.0 2.0 0.00 0.28 0.00 78 1017.0
20260831185023 90 294 0.0 2.0 0.00 0.28 0.00 77 1017.0
20260831184523 90 14 0.0 2.0 0.00 0.28 0.00 77 1017.0
20260831184021 90 257 0.0 4.0 0.00 0.28 0.00 78 1017.2
20260831183521 91 288 0.0 4.0 0.00 0.28 0.00 75 1017.2
20260831183027 91 232 0.0 2.0 0.00 0.28 0.00 79 1017.3
20260831182522 89 261 0.0 2.0 0.00 0.28 0.00 79 1017.2
20260831182019 89 228 0.0 3.0 0.00 0.28 0.00 77 1017.3
20260831181519 90 225 0.0 3.0 0.00 0.28 0.00 78 1017.3
20260831181018 90 92 0.0 7.0 0.00 0.28 0.00 78 1017.5
20260831180519 91 328 1.0 7.0 0.00 0.28 0.00 78 1017.6
20260831180017 90 236 0.0 5.0 0.00 0.28 0.00 79 1017.6
20260831175517 90 295 1.0 5.0 0.00 0.28 0.00 78 1017.5
20260831175017 92 115 0.0 4.0 0.00 0.28 0.00 73 1017.6
20260831174514 92 275 0.0 5.0 0.00 0.28 0.00 78 1017.7
20260831174011 90 139 0.0 5.0 0.00 0.28 0.00 79 1017.7
20260831173510 89 204 0.0 4.0 0.00 0.28 0.00 80 1017.7
20260831173009 88 311 0.0 4.0 0.00 0.28 0.00 84 1018.0
20260831172609 87 108 0.0 3.0 0.00 0.28 0.00 81 1018.1
20260831172008 87 221 0.0 3.0 0.00 0.28 0.00 81 1018.1
20260831171509 88 200 0.0 4.0 0.00 0.28 0.00 82 1018.2
20260831171008 88 217 0.0 4.0 0.00 0.28 0.00 82 1018.2
20260831170507 89 316 0.0 4.0 0.00 0.28 0.00 80 1018.1
20260831170007 89 140 0.0 2.0 0.00 0.28 0.00 81 1018.1
20260831165506 89 122 0.0 2.0 0.00 0.28 0.00 80 1018.2
20260831165005 88 309 0.0 2.0 0.00 0.28 0.00 81 1018.4
20260831164504 88 343 0.0 4.0 0.00 0.28 0.00 80 1018.3
20260831164005 88 219 0.0 4.0 0.00 0.28 0.00 80 1018.3
20260831163504 88 246 0.0 2.0 0.00 0.28 0.00 80 1018.4
20260831163007 89 209 0.0 1.0 0.00 0.28 0.00 81 1018.5
20260831162503 89 130 0.0 4.0 0.00 0.28 0.00 80 1018.4
20260831162002 90 279 0.0 4.0 0.00 0.28 0.00 79 1018.5
20260831161504 89 106 0.0 4.0 0.00 0.28 0.00 80 1018.5
20260831161103 89 322 0.0 4.0 0.00 0.28 0.00 81 1018.5
20260831160559 89 343 0.0 2.0 0.00 0.28 0.00 78 1018.7
20260831160105 90 122 0.0 1.0 0.00 0.28 0.00 79 1018.6
20260831155558 91 179 0.0 2.0 0.00 0.28 0.00 77 1018.6
20260831155057 91 23 0.0 2.0 0.00 0.28 0.00 75 1018.6
20260831154607 91 292 0.0 2.0 0.00 0.28 0.00 76 1018.8
20260831154052 91 307 0.0 2.0 0.00 0.28 0.00 76 1018.8
20260831153552 91 300 0.0 1.0 0.00 0.28 0.00 77 1018.8
20260831153050 90 257 0.0 1.0 0.00 0.28 0.00 77 1018.7
20260831152551 90 304 0.0 2.0 0.00 0.28 0.00 73 1018.8
20260831152048 90 160 0.0 2.0 0.00 0.28 0.00 77 1018.7
20260831151547 89 153 0.0 3.0 0.00 0.28 0.00 78 1018.9
20260831151043 89 141 0.0 3.0 0.00 0.28 0.00 77 1018.8
20260831150543 89 15 0.0 2.0 0.00 0.28 0.00 79 1018.7
20260831150040 88 320 0.0 2.0 0.00 0.28 0.00 78 1018.7
20260831145538 87 296 0.0 2.0 0.00 0.28 0.00 80 1018.8
20260831145036 87 191 1.0 2.0 0.00 0.28 0.00 81 1018.7
20260831144536 87 228 0.0 2.0 0.00 0.28 0.00 82 1018.6
20260831144035 86 246 0.0 2.0 0.00 0.28 0.00 82 1018.6
20260831143535 86 229 0.0 2.0 0.00 0.28 0.00 83 1018.6
20260831143031 86 216 0.0 2.0 0.00 0.28 0.00 83 1018.5
20260831142530 85 314 0.0 1.0 0.00 0.28 0.00 83 1018.4
20260831142026 85 252 0.0 2.0 0.00 0.28 0.00 85 1018.4
20260831141528 84 238 0.0 1.0 0.00 0.28 0.00 85 1018.3
20260831141024 83 245 0.0 2.0 0.00 0.28 0.00 85 1018.4
20260831140522 83 238 0.0 2.0 0.00 0.28 0.00 87 1018.3
20260831140034 82 241 0.0 1.0 0.00 0.28 0.00 88 1018.3
20260831135520 81 242 0.0 1.0 0.00 0.28 0.00 89 1018.2
20260831135023 81 110 0.0 0.0 0.00 0.28 0.00 90 1018.1
20260831134516 80 110 0.0 0.0 0.00 0.28 0.00 90 1017.9
20260831134014 80 110 0.0 1.0 0.00 0.28 0.00 90 1017.9
20260831133514 79 110 0.0 1.0 0.00 0.28 0.00 91 1017.9
20260831133011 79 141 0.0 1.0 0.00 0.28 0.00 93 1017.8
20260831132510 78 141 0.0 1.0 0.00 0.28 0.00 94 1017.8
20260831132009 78 132 0.0 1.0 0.00 0.28 0.00 95 1017.7
20260831131511 78 124 0.0 1.0 0.00 0.28 0.00 95 1017.8
20260831131008 78 321 0.0 0.0 0.00 0.28 0.00 95 1017.7
20260831130506 78 321 0.0 1.0 0.00 0.28 0.00 95 1017.7
20260831130008 78 321 0.0 1.0 0.00 0.28 0.00 95 1017.8
20260831125506 78 309 0.0 0.0 0.00 0.28 0.00 95 1017.7
20260831125004 78 309 0.0 0.0 0.00 0.28 0.00 95 1017.7
20260831124503 78 309 0.0 0.0 0.00 0.28 0.00 95 1017.7
20260831124001 78 309 0.0 0.0 0.00 0.28 0.00 95 1017.6
20260831123600 78 309 0.0 0.0 0.00 0.28 0.00 95 1017.6
20260831123100 78 309 0.0 0.0 0.00 0.28 0.00 95 1017.6
20260831122557 77 309 0.0 0.0 0.00 0.28 0.00 95 1017.5
20260831122059 77 309 0.0 0.0 0.00 0.28 0.00 95 1017.5
20260831121555 77 309 0.0 0.0 0.00 0.28 0.00 95 1017.5
20260831121054 76 309 0.0 0.0 0.00 0.28 0.00 95 1017.4
20260831120553 76 309 0.0 0.0 0.00 0.28 0.00 95 1017.4
20260831120057 76 309 0.0 0.0 0.00 0.28 0.00 95 1017.4
20260831115551 76 309 0.0 0.0 0.00 0.28 0.00 95 1017.2
20260831115049 75 309 0.0 0.0 0.00 0.28 0.00 95 1017.2
20260831114549 75 309 0.0 0.0 0.00 0.28 0.00 95 1017.2
20260831114052 75 309 0.0 0.0 0.00 0.28 0.00 95 1017.1
20260831113547 75 309 0.0 0.0 0.00 0.28 0.00 95 1017.1
20260831113107 75 309 0.0 0.0 0.00 0.28 0.00 95 1017.2
20260831112548 75 309 0.0 0.0 0.00 0.28 0.00 95 1017.1
20260831112045 75 309 0.0 0.0 0.00 0.28 0.00 95 1017.0
20260831111544 75 309 0.0 0.0 0.00 0.28 0.00 95 1017.0
20260831111044 75 309 0.0 0.0 0.00 0.28 0.00 95 1016.9
20260831110547 75 309 0.0 0.0 0.00 0.28 0.00 95 1016.8
20260831110044 75 309 0.0 0.0 0.00 0.28 0.00 95 1016.7
20260831105542 75 309 0.0 0.0 0.00 0.28 0.00 95 1016.6
20260831105042 75 309 0.0 0.0 0.00 0.28 0.00 95 1016.7
20260831104541 75 309 0.0 0.0 0.00 0.28 0.00 95 1016.7
20260831104042 75 309 0.0 0.0 0.00 0.28 0.00 95 1016.7
20260831103541 75 309 0.0 0.0 0.00 0.28 0.00 95 1016.6
20260831103047 75 309 0.0 0.0 0.00 0.28 0.00 95 1016.6
20260831102541 75 309 0.0 0.0 0.00 0.28 0.00 95 1016.5
20260831102039 75 309 0.0 0.0 0.00 0.28 0.00 95 1016.5
20260831101539 75 309 0.0 0.0 0.00 0.28 0.00 95 1016.4
20260831101037 75 309 0.0 0.0 0.00 0.28 0.00 95 1016.5
20260831100539 75 309 0.0 0.0 0.00 0.28 0.00 95 1016.5
20260831100038 75 309 0.0 0.0 0.00 0.28 0.00 95 1016.4
20260831095535 75 309 0.0 0.0 0.00 0.28 0.00 95 1016.3
20260831095034 75 309 0.0 0.0 0.00 0.28 0.00 95 1016.4
20260831094539 75 309 0.0 0.0 0.00 0.28 0.00 95 1016.3
20260831094036 75 309 0.0 0.0 0.00 0.28 0.00 95 1016.4
20260831093536 75 309 0.0 0.0 0.00 0.28 0.00 95 1016.3
20260831093033 75 309 0.0 0.0 0.00 0.28 0.00 95 1016.4
20260831092531 75 309 0.0 0.0 0.00 0.28 0.00 94 1016.5
20260831092029 75 309 0.0 0.0 0.00 0.28 0.00 94 1016.5
20260831091536 75 309 0.0 0.0 0.00 0.28 0.00 94 1016.4
20260831091030 75 309 0.0 0.0 0.00 0.28 0.00 94 1016.3
20260831090530 74 309 0.0 0.0 0.00 0.28 0.00 94 1016.2
20260831090027 75 309 0.0 0.0 0.00 0.28 0.00 94 1016.2
20260831085530 75 309 0.0 0.0 0.00 0.28 0.00 94 1016.2
20260831085027 75 309 0.0 0.0 0.00 0.28 0.00 94 1016.2
20260831084529 75 309 0.0 0.0 0.00 0.28 0.00 94 1016.2
20260831084024 75 309 0.0 0.0 0.00 0.28 0.00 94 1016.2
20260831083524 75 309 0.0 0.0 0.00 0.28 0.00 94 1016.2
20260831083023 75 309 0.0 0.0 0.00 0.28 0.00 94 1016.3
20260831082521 75 309 0.0 0.0 0.00 0.28 0.00 94 1016.1
20260831082019 75 309 0.0 0.0 0.00 0.28 0.00 94 1016.2
20260831081522 75 309 0.0 0.0 0.00 0.28 0.00 94 1016.2
20260831081019 75 309 0.0 0.0 0.00 0.28 0.00 94 1016.3
20260831080518 75 309 0.0 0.0 0.00 0.28 0.00 94 1016.3
20260831080029 75 309 0.0 0.0 0.00 0.28 0.00 94 1016.3
20260831075516 75 309 0.0 0.0 0.00 0.28 0.00 94 1016.3
20260831075016 76 309 0.0 0.0 0.00 0.28 0.00 94 1016.3
20260831074515 75 309 0.0 0.0 0.00 0.28 0.00 94 1016.4
20260831074015 75 309 0.0 0.0 0.00 0.28 0.00 94 1016.5
20260831073514 75 309 0.0 0.0 0.00 0.28 0.00 94 1016.5
20260831073014 75 309 0.0 0.0 0.00 0.28 0.00 94 1016.6
20260831072516 75 309 0.0 0.0 0.00 0.28 0.00 94 1016.6
20260831072011 76 309 0.0 0.0 0.00 0.28 0.00 94 1016.5
20260831071510 76 309 0.0 0.0 0.00 0.28 0.00 94 1016.6
20260831071011 75 309 0.0 0.0 0.00 0.28 0.00 94 1016.6
20260831070512 75 309 0.0 0.0 0.00 0.28 0.00 94 1016.7
20260831070012 76 309 0.0 0.0 0.00 0.28 0.00 94 1016.6
20260831065508 76 309 0.0 0.0 0.00 0.28 0.00 94 1016.7
20260831065007 76 309 0.0 0.0 0.00 0.28 0.00 94 1016.6
20260831064507 76 309 0.0 0.0 0.00 0.28 0.00 94 1016.6
20260831064008 76 309 0.0 0.0 0.00 0.28 0.00 94 1016.7
20260831063505 76 309 0.0 0.0 0.00 0.28 0.00 94 1016.8
20260831063007 76 309 0.0 0.0 0.00 0.28 0.00 94 1016.9
20260831062503 76 309 0.0 0.0 0.00 0.28 0.00 94 1016.8
20260831062003 76 309 0.0 0.0 0.00 0.28 0.00 94 1016.9
20260831061501 76 309 0.0 0.0 0.00 0.28 0.00 94 1016.9
20260831061100 76 309 0.0 0.0 0.00 0.28 0.00 94 1016.9
20260831060559 76 309 0.0 0.0 0.00 0.28 0.00 94 1017.0
20260831060058 76 309 0.0 0.0 0.00 0.28 0.00 94 1017.0
20260831055557 76 309 0.0 0.0 0.00 0.28 0.00 94 1017.0
20260831055057 76 309 0.0 0.0 0.00 0.28 0.00 94 1016.9
20260831054557 76 309 0.0 0.0 0.00 0.28 0.00 93 1017.0
20260831054057 76 309 0.0 0.0 0.00 0.28 0.00 93 1017.1
20260831053555 76 309 0.0 0.0 0.00 0.28 0.00 93 1017.0
20260831053056 76 309 0.0 0.0 0.00 0.28 0.00 93 1017.0
20260831052553 76 309 0.0 0.0 0.00 0.28 0.00 94 1017.0
20260831052053 76 309 0.0 0.0 0.00 0.28 0.00 93 1017.1
20260831051559 76 309 0.0 0.0 0.00 0.28 0.00 93 1017.1
20260831051052 76 309 0.0 0.0 0.00 0.28 0.00 93 1017.1
20260831050551 76 309 0.0 0.0 0.00 0.28 0.00 93 1017.0
20260831050053 76 309 0.0 0.0 0.00 0.28 0.00 93 1017.0
20260831045550 76 309 0.0 0.0 0.00 0.28 0.00 93 1017.0
20260831045049 76 309 0.0 0.0 0.00 0.28 0.00 93 1017.1
20260831044554 76 309 0.0 0.0 0.00 0.28 0.00 93 1017.0
20260831044047 76 309 0.0 0.0 0.00 0.28 0.00 93 1017.0
20260831043547 76 309 0.0 0.0 0.00 0.28 0.00 93 1017.0
20260831043045 76 309 0.0 0.0 0.00 0.28 0.00 93 1017.0
20260831042549 76 309 0.0 0.0 0.00 0.28 0.00 93 1017.0
20260831042047 76 309 0.0 0.0 0.00 0.28 0.00 93 1017.0
20260831041548 76 309 0.0 0.0 0.00 0.28 0.00 93 1017.0
20260831041042 76 309 0.0 0.0 0.00 0.28 0.00 93 1017.1
20260831040541 76 309 0.0 0.0 0.00 0.28 0.00 93 1017.1
20260831040040 76 309 0.0 0.0 0.00 0.28 0.00 93 1017.1
20260831035541 76 309 0.0 0.0 0.00 0.28 0.28 93 1017.2
20260831035038 76 309 0.0 0.0 0.00 0.28 0.28 93 1017.2
20260831034546 76 309 0.0 0.0 0.00 0.28 0.28 93 1017.3
20260831034038 77 309 0.0 0.0 0.00 0.28 0.28 93 1017.4
20260831033538 77 309 0.0 0.0 0.00 0.28 0.28 93 1017.4
20260831033038 76 309 0.0 0.0 0.00 0.28 0.28 93 1017.5
20260831032537 77 309 0.0 0.0 0.00 0.28 0.28 93 1017.5
20260831032039 76 309 0.0 0.0 0.00 0.28 0.28 93 1017.5
20260831031536 77 309 0.0 0.0 0.00 0.28 0.28 93 1017.6
20260831031034 76 309 0.0 0.0 0.00 0.28 0.28 93 1017.6
20260831030534 76 309 0.0 0.0 0.00 0.28 0.28 93 1017.6
20260831030033 76 309 0.0 0.0 0.00 0.28 0.28 93 1017.7
20260831025533 76 309 0.0 0.0 0.00 0.28 0.28 93 1017.7
20260831025033 76 309 0.0 0.0 0.00 0.28 0.28 93 1017.7
20260831024535 76 309 0.0 0.0 0.00 0.28 0.28 93 1017.7
20260831024031 76 309 0.0 0.0 0.00 0.28 0.28 93 1017.8
20260831023531 76 309 0.0 0.0 0.00 0.28 0.28 92 1017.9
20260831023029 76 309 0.0 0.0 0.00 0.28 0.28 92 1018.0